Regional Weather Roundup
Issued by NWS Cleveland, OH

Home | Current Version | Previous Version | Graphics & Text | Print | Product List | Glossary On
Versions: 1 2 3 4 5 6 7 8 9 10 11 12 13 14 15 16 17 18 19 20 21 22 23 24 25 26 27 28 29 30 31 32 33 34 35 36 37 38 39 40 41 42 43 44 45 46 47 48 49 50
000
ASUS41 KCLE 271500
RWRCLE
OHIO REGIONAL WEATHER ROUNDUP
NATIONAL WEATHER SERVICE WILMINGTON, OH
1100 AM EDT WED MAY 27 2015

NOTE: "FAIR" INDICATES FEW OR NO CLOUDS BELOW 12,000 FEET WITH NO
SIGNIFICANT WEATHER AND/OR OBSTRUCTIONS TO VISIBILITY.

OHZ001>008-015>018-024>027-034-035-043-044-271600-
   NORTHWEST OHIO

CITY           SKY/WX    TMP DP  RH WIND       PRES   REMARKS
DEFIANCE       SUNNY     76  63  64 SW14G23   30.01S
FINDLAY        SUNNY     76  65  68 SW20      30.04S
TOLEDO EXPRESS SUNNY     75  62  64 SW18G25   30.00S
TOLEDO EXEC    SUNNY     76  63  64 SW18G25   30.01S
LIMA           MOSUNNY   74  64  71 SW15G22   30.06S
$$

OHZ009>014-019>023-028>033-038-089-271600-
   NORTHEAST OHIO

CITY           SKY/WX    TMP DP  RH WIND       PRES   REMARKS
CLE-HOPKINS    PTSUNNY   76  63  64 SW14G22   30.07S
CLE-LAKEFRONT  MOSUNNY   77  62  59 S16G24    30.04S
CUY CO. ARPT   MOSUNNY   77  64  65 SW14      30.07S
LORAIN-ELYRIA  MOSUNNY   76  63  64 SW16      30.06S
ASHTABULA      PTSUNNY   72  63  73 SW10G21   30.08S
AKRON-CANTON   PTSUNNY   75  62  64 SW15      30.11S
WOOSTER        NOT AVBL
MANSFIELD      MOSUNNY   74  63  68 S16       30.09S
YOUNGSTOWN     PTSUNNY   72  63  73 SW8       30.11S
$$

OHZ042-051>053-060>062-070>072-077>081-271600-
  SOUTHWEST OHIO

CITY           SKY/WX    TMP DP  RH WIND       PRES   REMARKS
CINC-COVINGTON PTSUNNY   74  64  71 SW13G20   30.13F
CINC-LUNKEN    MOSUNNY   76  65  68 SW15      30.13S
HAMILTON       MOSUNNY   77  64  64 SW8G18    30.12F
DAYTON         NOT AVBL
WRIGHT-PAT AFB NOT AVBL
DAYTON GENERAL PTSUNNY   74  64  71 SW12G20   30.12R
WILMINGTON     MOSUNNY   74  62  66 SW17      30.13S
$$

OHZ036-037-039>041-045>050-054>059-063>069-073>076-082>088-271600-
  CENTRAL AND SOUTHEAST OHIO

CITY           SKY/WX    TMP DP  RH WIND       PRES   REMARKS
COLUMBUS       PTSUNNY   74  63  68 SW12      30.11S
OSU AIRPORT    PTSUNNY   74  62  66 SW17      30.11S
BOLTON FIELD   NOT AVBL
RICKENBACK AFB NOT AVBL
NEWARK         PTSUNNY   74  63  68 SW16      30.12S
MARION         PTSUNNY   74  63  68 SW16G22   30.09S
LANCASTER      MOSUNNY   75  64  68 SW9       30.14S
ZANESVILLE     PTSUNNY   73  63  70 SW8       30.14S
NEW PHILLY       N/A     75  64  68 VRB6G16   30.13
$$



USA.gov is the U.S. government's official web portal to all federal, state and local government web resources and services.